Fort Morgan, CO

6:12 AM MDT on September 23, 2014 (GMT -0600)
Fort Morgan | Change Station
CLOSE
Current Station
Personal Weather Station
Location: Fort Morgan, CO
Elevation: 4327 ft
Nearby Weather Stations

Elev 4327 ft 40.24 °N, 103.79 °W | Updated 0 second ago

Partly Cloudy
Partly Cloudy
56.8 °F
Feels Like 56.8 °F
N
0.7
Wind Variable Wind from WSW
Gusts 3.1 mph

Today
High -- | Low -- °F
--% Chance of Precip.
Yesterday
High -- | Low -- °F
Precip. -- in
6:43 AM 6:50 PM
Waning Crescent, 1% visible
Pressure 30.09 in
Visibility 10.0 miles
Clouds Scattered Clouds 11000 ft
Dew Point 55 °F
Humidity 92%
Rainfall 0.00 in
Snow Depth 0 in , 0 in , 86 in
UV 0.0 out of 12
Pollen 6.10 out of 12
Air Quality Not available.
Flu Activity Not available.
METAR KFMM 231155Z AUTO 26004KT 10SM SCT110 13/11 A3009 RMK AO2 T01310112 10140 20123

More Conditions Fewer Conditions

Pressure 30.09 in
Visibility 10.0 miles
Clouds Scattered Clouds 11000 ft
Dew Point 55 °F
Humidity 92%
Rainfall 0.00 in
Snow Depth 0 in , 0 in , 86 in
UV 0.0 out of 12
Pollen 6.10 out of 12
Air Quality Not available.
Flu Activity Not available.
METAR KFMM 231155Z AUTO 26004KT 10SM SCT110 13/11 A3009 RMK AO2 T01310112 10140 20123

More Conditions Fewer Conditions

10-Day Weather Forecast

Almanac

Astronomy

Sep. 23, 2014 Rise Set
Actual Time 6:43 AM MDT 6:50 PM MDT
Civil Twilight 6:16 AM MDT 7:17 PM MDT
Nautical Twilight 5:44 AM MDT 7:49 PM MDT
Astronomical Twilight 5:12 AM MDT 8:21 PM MDT
Moon 6:10 AM MDT 6:30 PM MDT
Length of Visible Light 13h 00m
Length of Day
12h 06m
Tomorrow will be 2m 39s shorter.
Waning Crescent, 1% of the Moon is Illuminated
Today
Waning Crescent
Sep 24
New
Oct 1
First Quarter
Oct 8
Full
Oct 15
Last Quarter

Today's Extremes

State Highs State Lows

Community

WunderPhotos

Upload Photos

1,755,659 photos uploaded!

WunderBlogs® & News

By Dr. Jeff Masters
Director of Meteorology, Weather Underground
By Kari Strenfel
Meteorologist, Weather Underground
By Christopher C. Burt
Weather Historian, Weather Underground
September 23, 2014
September 23, 2014
September 23, 2014

Nearby

Snow Depth

Station Depth Elevation
Michigan Creek 0 in 10600 ft
Phantom Valley 0 in 9030 ft
Vail Mountain 86 in 10300 ft
Upper Rio Grande 0 in 9400 ft
Apishapa 0 in 10000 ft

Earthquake Activity

City Distance Mag. Time & Date
No recent earthquake activity has been reported nearby.
Minimum magnitude displayed is 2.5.

Coastal Water Temperatures

Place Temperature
No Stations Reporting

Nearby Weather Stations